| time (UTC) | temp C | wind direction | speed KPH | gust KPH | rain 1hr cm | rain 24hr cm | rain mn cm | humidity % | barometer mb |
| 20260510225420 | 22 | 41 | 0.0 | 4.8 | 0.00 | 0.00 | 0.00 | 43 | 1018.5 |
| 20260510224915 | 22 | 111 | 1.6 | 4.8 | 0.00 | 0.00 | 0.00 | 42 | 1018.5 |
| 20260510224413 | 22 | 26 | 4.8 | 4.8 | 0.00 | 0.00 | 0.00 | 41 | 1018.4 |
| 20260510223909 | 22 | 21 | 4.8 | 8.0 | 0.00 | 0.00 | 0.00 | 42 | 1018.3 |
| 20260510223406 | 22 | 2 | 3.2 | 4.8 | 0.00 | 0.00 | 0.00 | 43 | 1018.3 |
| 20260510222904 | 22 | 7 | 1.6 | 4.8 | 0.00 | 0.00 | 0.00 | 43 | 1018.4 |
| 20260510222401 | 22 | 157 | 4.8 | 6.4 | 0.00 | 0.00 | 0.00 | 41 | 1018.3 |
| 20260510221855 | 22 | 18 | 0.0 | 3.2 | 0.00 | 0.00 | 0.00 | 41 | 1018.3 |
| 20260510221353 | 22 | 60 | 4.8 | 6.4 | 0.00 | 0.00 | 0.00 | 41 | 1018.4 |
| 20260510220849 | 22 | 39 | 1.6 | 9.7 | 0.00 | 0.00 | 0.00 | 42 | 1018.3 |
| 20260510220345 | 22 | 7 | 3.2 | 3.2 | 0.00 | 0.00 | 0.00 | 41 | 1018.5 |
| 20260510215842 | 23 | 3 | 0.0 | 3.2 | 0.00 | 0.00 | 0.00 | 42 | 1018.3 |
| 20260510215339 | 23 | 287 | 0.0 | 3.2 | 0.00 | 0.00 | 0.00 | 41 | 1018.3 |
| 20260510214837 | 23 | 39 | 1.6 | 3.2 | 0.00 | 0.00 | 0.00 | 46 | 1018.3 |
| 20260510214333 | 23 | 63 | 1.6 | 4.8 | 0.00 | 0.00 | 0.00 | 40 | 1018.3 |
| 20260510213831 | 23 | 30 | 3.2 | 4.8 | 0.00 | 0.00 | 0.00 | 40 | 1018.5 |
| 20260510213327 | 23 | 3 | 3.2 | 6.4 | 0.00 | 0.00 | 0.00 | 41 | 1018.4 |
| 20260510212824 | 23 | 147 | 1.6 | 4.8 | 0.00 | 0.00 | 0.00 | 39 | 1018.3 |
| 20260510212321 | 23 | 27 | 1.6 | 3.2 | 0.00 | 0.00 | 0.00 | 42 | 1018.2 |
| 20260510211818 | 23 | 148 | 1.6 | 4.8 | 0.00 | 0.00 | 0.00 | 39 | 1018.3 |
| 20260510211313 | 23 | 23 | 1.6 | 6.4 | 0.00 | 0.00 | 0.00 | 37 | 1018.2 |
| 20260510210809 | 23 | 9 | 3.2 | 8.0 | 0.00 | 0.00 | 0.00 | 40 | 1018.1 |
| 20260510210304 | 23 | 39 | 4.8 | 9.7 | 0.00 | 0.00 | 0.00 | 37 | 1018.2 |
| 20260510205803 | 23 | 359 | 4.8 | 8.0 | 0.00 | 0.00 | 0.00 | 38 | 1018.3 |
| 20260510205259 | 24 | 350 | 8.0 | 11.3 | 0.00 | 0.00 | 0.00 | 37 | 1018.2 |
| 20260510204755 | 23 | 8 | 4.8 | 6.4 | 0.00 | 0.00 | 0.00 | 37 | 1018.2 |
| 20260510204252 | 25 | 347 | 6.4 | 9.7 | 0.00 | 0.00 | 0.00 | 37 | 1018.3 |
| 20260510203749 | 25 | 24 | 3.2 | 4.8 | 0.00 | 0.00 | 0.00 | 37 | 1018.3 |
| 20260510203247 | 24 | 354 | 3.2 | 8.0 | 0.00 | 0.00 | 0.00 | 35 | 1018.2 |
| 20260510202746 | 24 | 358 | 1.6 | 6.4 | 0.00 | 0.00 | 0.00 | 42 | 1018.3 |
| 20260510202242 | 24 | 44 | 4.8 | 6.4 | 0.00 | 0.00 | 0.00 | 40 | 1018.2 |
| 20260510201740 | 24 | 10 | 4.8 | 8.0 | 0.00 | 0.00 | 0.00 | 37 | 1018.3 |
| 20260510201236 | 23 | 251 | 1.6 | 6.4 | 0.00 | 0.00 | 0.00 | 39 | 1018.4 |
| 20260510200733 | 24 | 39 | 3.2 | 6.4 | 0.00 | 0.00 | 0.00 | 39 | 1018.4 |
| 20260510200230 | 23 | 31 | 8.0 | 8.0 | 0.00 | 0.00 | 0.00 | 37 | 1018.4 |
| 20260510195727 | 23 | 341 | 0.0 | 6.4 | 0.00 | 0.00 | 0.00 | 42 | 1018.4 |
| 20260510195224 | 23 | 105 | 1.6 | 4.8 | 0.00 | 0.00 | 0.00 | 40 | 1018.5 |
| 20260510194723 | 23 | 43 | 3.2 | 6.4 | 0.00 | 0.00 | 0.00 | 38 | 1018.7 |
| 20260510194220 | 23 | 10 | 3.2 | 6.4 | 0.00 | 0.00 | 0.00 | 37 | 1018.8 |
| 20260510193715 | 24 | 318 | 4.8 | 6.4 | 0.00 | 0.00 | 0.00 | 38 | 1018.6 |
| 20260510193210 | 24 | 6 | 4.8 | 9.7 | 0.00 | 0.00 | 0.00 | 38 | 1018.6 |
| 20260510192706 | 24 | 1 | 8.0 | 8.0 | 0.00 | 0.00 | 0.00 | 41 | 1018.5 |
| 20260510192201 | 23 | 25 | 6.4 | 8.0 | 0.00 | 0.00 | 0.00 | 39 | 1018.7 |
| 20260510191658 | 23 | 29 | 4.8 | 9.7 | 0.00 | 0.00 | 0.00 | 41 | 1018.8 |
| 20260510191155 | 23 | 25 | 0.0 | 6.4 | 0.00 | 0.00 | 0.00 | 43 | 1018.5 |
| 20260510190652 | 23 | 47 | 4.8 | 6.4 | 0.00 | 0.00 | 0.00 | 42 | 1018.5 |
| 20260510190149 | 23 | 38 | 3.2 | 4.8 | 0.00 | 0.00 | 0.00 | 40 | 1018.4 |
| 20260510185646 | 23 | 14 | 4.8 | 9.7 | 0.00 | 0.00 | 0.00 | 42 | 1018.8 |
| 20260510185144 | 23 | 343 | 3.2 | 6.4 | 0.00 | 0.00 | 0.00 | 44 | 1018.4 |
| 20260510184640 | 22 | 18 | 4.8 | 8.0 | 0.00 | 0.00 | 0.00 | 42 | 1018.4 |
| 20260510184136 | 22 | 338 | 6.4 | 9.7 | 0.00 | 0.00 | 0.00 | 43 | 1018.5 |
| 20260510183631 | 22 | 89 | 3.2 | 8.0 | 0.00 | 0.00 | 0.00 | 45 | 1018.6 |
| 20260510183127 | 22 | 9 | 1.6 | 6.4 | 0.00 | 0.00 | 0.00 | 41 | 1018.4 |
| 20260510182624 | 22 | 44 | 3.2 | 6.4 | 0.00 | 0.00 | 0.00 | 45 | 1018.4 |
| 20260510182119 | 23 | 23 | 4.8 | 6.4 | 0.00 | 0.00 | 0.00 | 44 | 1018.3 |
| 20260510181617 | 23 | 44 | 1.6 | 9.7 | 0.00 | 0.00 | 0.00 | 46 | 1018.2 |
| 20260510181113 | 23 | 339 | 0.0 | 6.4 | 0.00 | 0.00 | 0.00 | 47 | 1018.3 |
| 20260510180609 | 23 | 359 | 6.4 | 9.7 | 0.00 | 0.00 | 0.00 | 49 | 1018.2 |
| 20260510180107 | 23 | 62 | 4.8 | 9.7 | 0.00 | 0.00 | 0.00 | 51 | 1018.1 |
| 20260510175603 | 23 | 45 | 4.8 | 8.0 | 0.00 | 0.00 | 0.00 | 54 | 1018.1 |
| 20260510175058 | 23 | 11 | 3.2 | 8.0 | 0.00 | 0.00 | 0.00 | 55 | 1018.0 |
| 20260510174557 | 23 | 357 | 4.8 | 6.4 | 0.00 | 0.00 | 0.00 | 54 | 1018.1 |
| 20260510174053 | 23 | 331 | 6.4 | 9.7 | 0.00 | 0.00 | 0.00 | 55 | 1018.1 |
| 20260510173549 | 23 | 353 | 14.5 | 14.5 | 0.00 | 0.00 | 0.00 | 57 | 1018.0 |
| 20260510173046 | 23 | 17 | 4.8 | 9.7 | 0.00 | 0.00 | 0.00 | 56 | 1018.2 |
| 20260510172542 | 23 | 41 | 3.2 | 8.0 | 0.00 | 0.00 | 0.00 | 55 | 1018.2 |
| 20260510172038 | 22 | 13 | 6.4 | 11.3 | 0.00 | 0.00 | 0.00 | 55 | 1018.3 |
| 20260510171535 | 22 | 4 | 1.6 | 6.4 | 0.00 | 0.00 | 0.00 | 54 | 1018.4 |
| 20260510171032 | 22 | 11 | 3.2 | 8.0 | 0.00 | 0.00 | 0.00 | 56 | 1018.4 |
| 20260510170528 | 23 | 5 | 4.8 | 8.0 | 0.00 | 0.00 | 0.00 | 56 | 1018.6 |
| 20260510170025 | 23 | 81 | 3.2 | 6.4 | 0.00 | 0.00 | 0.00 | 54 | 1018.5 |
| 20260510165520 | 23 | 10 | 6.4 | 12.9 | 0.00 | 0.00 | 0.00 | 52 | 1018.2 |
| 20260510165017 | 25 | 61 | 6.4 | 11.3 | 0.00 | 0.00 | 0.00 | 52 | 1018.1 |
| 20260510164514 | 24 | 349 | 6.4 | 11.3 | 0.00 | 0.00 | 0.00 | 54 | 1018.3 |
| 20260510164010 | 25 | 23 | 3.2 | 8.0 | 0.00 | 0.00 | 0.00 | 53 | 1018.2 |
| 20260510163506 | 25 | 3 | 3.2 | 8.0 | 0.00 | 0.00 | 0.00 | 51 | 1018.3 |
| 20260510163002 | 24 | 39 | 4.8 | 8.0 | 0.00 | 0.00 | 0.00 | 56 | 1018.3 |
| 20260510162458 | 23 | 5 | 4.8 | 6.4 | 0.00 | 0.00 | 0.00 | 57 | 1018.5 |
| 20260510161954 | 23 | 31 | 4.8 | 6.4 | 0.00 | 0.00 | 0.00 | 54 | 1018.3 |
| 20260510161450 | 23 | 30 | 6.4 | 6.4 | 0.00 | 0.00 | 0.00 | 53 | 1018.2 |
| 20260510160948 | 22 | 110 | 3.2 | 9.7 | 0.00 | 0.00 | 0.00 | 54 | 1018.2 |
| 20260510160445 | 23 | 354 | 6.4 | 14.5 | 0.00 | 0.00 | 0.00 | 55 | 1018.1 |
| 20260510155943 | 23 | 23 | 3.2 | 8.0 | 0.00 | 0.00 | 0.00 | 54 | 1017.9 |
| 20260510155440 | 23 | 24 | 3.2 | 4.8 | 0.00 | 0.00 | 0.00 | 54 | 1018.0 |
| 20260510154937 | 22 | 1 | 3.2 | 6.4 | 0.00 | 0.00 | 0.00 | 57 | 1017.8 |
| 20260510154433 | 22 | 334 | 3.2 | 4.8 | 0.00 | 0.00 | 0.00 | 57 | 1017.9 |
| 20260510153931 | 22 | 3 | 6.4 | 9.7 | 0.00 | 0.00 | 0.00 | 58 | 1017.8 |
| 20260510153428 | 22 | 357 | 6.4 | 9.7 | 0.00 | 0.00 | 0.00 | 58 | 1017.8 |
| 20260510152925 | 22 | 7 | 6.4 | 6.4 | 0.00 | 0.00 | 0.00 | 56 | 1017.7 |
| 20260510152423 | 22 | 88 | 3.2 | 6.4 | 0.00 | 0.00 | 0.00 | 58 | 1017.5 |
| 20260510151919 | 23 | 11 | 4.8 | 8.0 | 0.00 | 0.00 | 0.00 | 59 | 1017.4 |
| 20260510151416 | 22 | 87 | 0.0 | 3.2 | 0.00 | 0.00 | 0.00 | 57 | 1017.6 |
| 20260510150912 | 22 | 8 | 3.2 | 6.4 | 0.00 | 0.00 | 0.00 | 59 | 1017.3 |
| 20260510150408 | 22 | 31 | 3.2 | 9.7 | 0.00 | 0.00 | 0.00 | 58 | 1017.4 |
| 20260510145904 | 22 | 190 | 3.2 | 6.4 | 0.00 | 0.00 | 0.00 | 56 | 1017.3 |
| 20260510145401 | 22 | 144 | 0.0 | 8.0 | 0.00 | 0.00 | 0.00 | 57 | 1017.5 |
| 20260510144858 | 22 | 39 | 4.8 | 6.4 | 0.00 | 0.00 | 0.00 | 57 | 1017.5 |
| 20260510144355 | 21 | 329 | 4.8 | 9.7 | 0.00 | 0.00 | 0.00 | 59 | 1017.5 |
| 20260510143854 | 21 | 351 | 8.0 | 8.0 | 0.00 | 0.00 | 0.00 | 58 | 1017.5 |
| 20260510143351 | 21 | 347 | 6.4 | 12.9 | 0.00 | 0.00 | 0.00 | 58 | 1017.4 |
| 20260510142848 | 21 | 333 | 4.8 | 8.0 | 0.00 | 0.00 | 0.00 | 59 | 1017.3 |
| 20260510142344 | 21 | 320 | 3.2 | 6.4 | 0.00 | 0.00 | 0.00 | 60 | 1017.5 |
| 20260510141841 | 21 | 354 | 4.8 | 6.4 | 0.00 | 0.00 | 0.00 | 59 | 1017.4 |
| 20260510141339 | 20 | 337 | 6.4 | 6.4 | 0.00 | 0.00 | 0.00 | 61 | 1017.4 |
| 20260510140836 | 20 | 9 | 3.2 | 8.0 | 0.00 | 0.00 | 0.00 | 60 | 1017.3 |
| 20260510140332 | 21 | 75 | 0.0 | 6.4 | 0.00 | 0.00 | 0.00 | 59 | 1017.2 |
| 20260510135825 | 20 | 9 | 3.2 | 4.8 | 0.00 | 0.00 | 0.00 | 60 | 1017.0 |
| 20260510135321 | 20 | 18 | 6.4 | 6.4 | 0.00 | 0.00 | 0.00 | 61 | 1017.0 |
| 20260510134819 | 20 | 3 | 3.2 | 3.2 | 0.00 | 0.00 | 0.00 | 60 | 1016.8 |
| 20260510134316 | 20 | 351 | 4.8 | 6.4 | 0.00 | 0.00 | 0.00 | 62 | 1016.8 |
| 20260510133811 | 20 | 18 | 0.0 | 3.2 | 0.00 | 0.00 | 0.00 | 60 | 1016.8 |
| 20260510133308 | 19 | 336 | 3.2 | 3.2 | 0.00 | 0.00 | 0.00 | 62 | 1016.7 |
| 20260510132803 | 18 | 334 | 0.0 | 3.2 | 0.00 | 0.00 | 0.00 | 66 | 1016.8 |
| 20260510132305 | 17 | 173 | 0.0 | 3.2 | 0.00 | 0.00 | 0.00 | 67 | 1016.9 |
| 20260510131758 | 17 | 346 | 0.0 | 6.4 | 0.00 | 0.00 | 0.00 | 67 | 1016.9 |
| 20260510131256 | 18 | 9 | 1.6 | 3.2 | 0.00 | 0.00 | 0.00 | 65 | 1017.2 |
| 20260510130752 | 17 | 353 | 3.2 | 3.2 | 0.00 | 0.00 | 0.00 | 67 | 1016.8 |
| 20260510130249 | 17 | 20 | 1.6 | 3.2 | 0.00 | 0.00 | 0.00 | 67 | 1016.6 |
| 20260510125746 | 17 | 89 | 3.2 | 3.2 | 0.00 | 0.00 | 0.00 | 67 | 1016.7 |
| 20260510125242 | 17 | 22 | 0.0 | 4.8 | 0.00 | 0.00 | 0.00 | 69 | 1016.6 |
| 20260510124738 | 17 | 9 | 4.8 | 4.8 | 0.00 | 0.00 | 0.00 | 68 | 1016.5 |
| 20260510124236 | 16 | 357 | 3.2 | 9.7 | 0.00 | 0.00 | 0.00 | 69 | 1016.6 |
| 20260510123731 | 17 | 8 | 8.0 | 8.0 | 0.00 | 0.00 | 0.00 | 66 | 1016.4 |
| 20260510123228 | 17 | 332 | 1.6 | 3.2 | 0.00 | 0.00 | 0.00 | 66 | 1016.2 |
| 20260510122724 | 17 | 299 | 3.2 | 4.8 | 0.00 | 0.00 | 0.00 | 65 | 1016.0 |
| 20260510122220 | 17 | 298 | 3.2 | 4.8 | 0.00 | 0.00 | 0.00 | 64 | 1016.0 |
| 20260510121717 | 17 | 285 | 4.8 | 4.8 | 0.00 | 0.00 | 0.00 | 64 | 1015.9 |
| 20260510121215 | 17 | 263 | 0.0 | 3.2 | 0.00 | 0.00 | 0.00 | 64 | 1015.9 |
| 20260510120711 | 17 | 277 | 0.0 | 3.2 | 0.00 | 0.00 | 0.00 | 65 | 1015.7 |
| 20260510120208 | 17 | 317 | 0.0 | 3.2 | 0.00 | 0.00 | 0.00 | 65 | 1015.6 |
| 20260510115703 | 16 | 287 | 0.0 | 4.8 | 0.00 | 0.00 | 0.00 | 64 | 1015.5 |
| 20260510115202 | 16 | 289 | 0.0 | 3.2 | 0.00 | 0.00 | 0.00 | 65 | 1015.4 |
| 20260510114657 | 16 | 312 | 3.2 | 3.2 | 0.00 | 0.00 | 0.00 | 66 | 1015.3 |
| 20260510114154 | 16 | 309 | 1.6 | 3.2 | 0.00 | 0.00 | 0.00 | 66 | 1015.1 |
| 20260510113649 | 15 | 292 | 3.2 | 6.4 | 0.00 | 0.00 | 0.00 | 66 | 1015.1 |
| 20260510113146 | 15 | 285 | 3.2 | 4.8 | 0.00 | 0.00 | 0.00 | 68 | 1014.9 |
| 20260510112643 | 15 | 180 | 1.6 | 4.8 | 0.00 | 0.00 | 0.00 | 68 | 1014.8 |
| 20260510112140 | 15 | 313 | 0.0 | 3.2 | 0.00 | 0.00 | 0.00 | 68 | 1014.8 |
| 20260510111636 | 15 | 293 | 3.2 | 3.2 | 0.00 | 0.00 | 0.00 | 68 | 1015.0 |
| 20260510111132 | 15 | 302 | 3.2 | 4.8 | 0.00 | 0.00 | 0.00 | 68 | 1014.8 |
| 20260510110627 | 15 | 271 | 3.2 | 3.2 | 0.00 | 0.00 | 0.00 | 67 | 1014.9 |
| 20260510110125 | 15 | 189 | 1.6 | 3.2 | 0.00 | 0.00 | 0.00 | 67 | 1014.7 |
| 20260510105620 | 15 | 300 | 0.0 | 1.6 | 0.00 | 0.00 | 0.00 | 67 | 1014.6 |
| 20260510105115 | 15 | 318 | 1.6 | 3.2 | 0.00 | 0.00 | 0.00 | 66 | 1014.6 |
| 20260510104612 | 15 | 262 | 1.6 | 3.2 | 0.00 | 0.00 | 0.00 | 66 | 1014.5 |
| 20260510104109 | 15 | 288 | 3.2 | 3.2 | 0.00 | 0.00 | 0.00 | 66 | 1014.5 |
| 20260510103606 | 15 | 300 | 1.6 | 3.2 | 0.00 | 0.00 | 0.00 | 68 | 1014.3 |
| 20260510103101 | 15 | 193 | 0.0 | 1.6 | 0.00 | 0.00 | 0.00 | 67 | 1014.2 |
| 20260510102557 | 15 | 297 | 1.6 | 1.6 | 0.00 | 0.00 | 0.00 | 68 | 1014.4 |
| 20260510102053 | 15 | 261 | 0.0 | 1.6 | 0.00 | 0.00 | 0.00 | 67 | 1014.4 |
| 20260510101551 | 15 | 300 | 0.0 | 3.2 | 0.00 | 0.00 | 0.00 | 66 | 1014.5 |
| 20260510101050 | 15 | 166 | 0.0 | 1.6 | 0.00 | 0.00 | 0.00 | 66 | 1014.3 |
| 20260510100545 | 15 | 277 | 0.0 | 1.6 | 0.00 | 0.00 | 0.00 | 66 | 1014.4 |
| 20260510100043 | 15 | 303 | 1.6 | 3.2 | 0.00 | 0.00 | 0.00 | 66 | 1014.4 |
| 20260510095539 | 15 | 296 | 1.6 | 1.6 | 0.00 | 0.00 | 0.00 | 66 | 1014.6 |
| 20260510095038 | 15 | 328 | 0.0 | 1.6 | 0.00 | 0.00 | 0.00 | 65 | 1014.3 |
| 20260510094533 | 16 | 297 | 1.6 | 3.2 | 0.00 | 0.00 | 0.00 | 65 | 1014.4 |
| 20260510094028 | 15 | 303 | 0.0 | 3.2 | 0.00 | 0.00 | 0.00 | 66 | 1014.4 |
| 20260510093524 | 15 | 290 | 3.2 | 3.2 | 0.00 | 0.00 | 0.00 | 66 | 1014.2 |
| 20260510093021 | 15 | 264 | 3.2 | 3.2 | 0.00 | 0.00 | 0.00 | 67 | 1014.3 |
| 20260510092518 | 15 | 290 | 1.6 | 3.2 | 0.00 | 0.00 | 0.00 | 66 | 1014.3 |
| 20260510092018 | 15 | 264 | 0.0 | 3.2 | 0.00 | 0.00 | 0.00 | 67 | 1014.2 |
| 20260510091515 | 15 | 144 | 0.0 | 3.2 | 0.00 | 0.00 | 0.00 | 68 | 1014.2 |
| 20260510091011 | 15 | 313 | 1.6 | 3.2 | 0.00 | 0.00 | 0.00 | 67 | 1014.4 |
| 20260510090508 | 15 | 277 | 0.0 | 3.2 | 0.00 | 0.00 | 0.00 | 69 | 1014.2 |
| 20260510090004 | 15 | 243 | 0.0 | 1.6 | 0.00 | 0.00 | 0.00 | 69 | 1014.2 |
| 20260510085459 | 15 | 217 | 0.0 | 1.6 | 0.00 | 0.00 | 0.00 | 69 | 1014.2 |
| 20260510084955 | 15 | 205 | 0.0 | 3.2 | 0.00 | 0.00 | 0.00 | 68 | 1014.1 |
| 20260510084452 | 15 | 212 | 1.6 | 3.2 | 0.00 | 0.00 | 0.00 | 67 | 1014.3 |
| 20260510083948 | 15 | 168 | 3.2 | 3.2 | 0.00 | 0.00 | 0.00 | 66 | 1014.3 |
| 20260510083445 | 15 | 175 | 3.2 | 3.2 | 0.00 | 0.00 | 0.00 | 67 | 1014.5 |
| 20260510082940 | 15 | 180 | 3.2 | 6.4 | 0.00 | 0.00 | 0.00 | 69 | 1014.6 |
| 20260510082438 | 16 | 16 | 0.0 | 3.2 | 0.00 | 0.00 | 0.00 | 64 | 1014.4 |
| 20260510081937 | 16 | 271 | 3.2 | 8.0 | 0.00 | 0.00 | 0.00 | 64 | 1014.4 |
| 20260510081433 | 15 | 277 | 1.6 | 6.4 | 0.00 | 0.00 | 0.00 | 66 | 1013.9 |
| 20260510080930 | 15 | 358 | 9.7 | 12.9 | 0.00 | 0.00 | 0.00 | 70 | 1014.3 |
| 20260510080428 | 14 | 20 | 0.0 | 0.0 | 0.00 | 0.00 | 0.00 | 73 | 1013.5 |
| 20260510075926 | 15 | 340 | 0.0 | 0.0 | 0.00 | 0.00 | 0.00 | 69 | 1013.4 |
| 20260510075424 | 15 | 340 | 0.0 | 0.0 | 0.00 | 0.00 | 0.00 | 67 | 1013.2 |
| 20260510074920 | 15 | 331 | 1.6 | 1.6 | 0.00 | 0.00 | 0.00 | 67 | 1013.0 |
| 20260510074417 | 15 | 272 | 1.6 | 1.6 | 0.00 | 0.00 | 0.00 | 67 | 1013.0 |
| 20260510073914 | 15 | 260 | 1.6 | 1.6 | 0.00 | 0.00 | 0.00 | 67 | 1013.1 |
| 20260510073409 | 15 | 266 | 0.0 | 1.6 | 0.00 | 0.00 | 0.00 | 66 | 1013.0 |
| 20260510072906 | 15 | 284 | 0.0 | 1.6 | 0.00 | 0.00 | 0.00 | 66 | 1013.0 |
| 20260510072403 | 15 | 255 | 0.0 | 0.0 | 0.00 | 0.00 | 0.00 | 66 | 1013.0 |
| 20260510071858 | 15 | 353 | 0.0 | 0.0 | 0.00 | 0.00 | 0.00 | 66 | 1013.0 |
| 20260510071355 | 15 | 353 | 0.0 | 1.6 | 0.00 | 0.00 | 0.00 | 66 | 1013.1 |
| 20260510070853 | 15 | 280 | 0.0 | 0.0 | 0.00 | 0.00 | 0.00 | 64 | 1013.0 |
| 20260510070350 | 16 | 280 | 0.0 | 0.0 | 0.00 | 0.00 | 0.00 | 62 | 1013.1 |
| 20260510065850 | 16 | 280 | 0.0 | 1.6 | 0.00 | 0.00 | 0.00 | 62 | 1013.4 |
| 20260510065347 | 16 | 294 | 0.0 | 3.2 | 0.00 | 0.00 | 0.00 | 61 | 1013.1 |
| 20260510064844 | 17 | 318 | 1.6 | 3.2 | 0.00 | 0.00 | 0.00 | 60 | 1013.3 |
| 20260510064342 | 17 | 308 | 0.0 | 4.8 | 0.00 | 0.00 | 0.00 | 59 | 1013.0 |
| 20260510063838 | 17 | 274 | 3.2 | 3.2 | 0.00 | 0.00 | 0.00 | 60 | 1013.1 |
| 20260510063334 | 17 | 283 | 3.2 | 3.2 | 0.00 | 0.00 | 0.00 | 59 | 1013.1 |
| 20260510062831 | 17 | 259 | 0.0 | 3.2 | 0.00 | 0.00 | 0.00 | 59 | 1013.0 |
| 20260510062326 | 17 | 266 | 0.0 | 1.6 | 0.00 | 0.00 | 0.00 | 60 | 1012.7 |
| 20260510061822 | 17 | 300 | 0.0 | 3.2 | 0.00 | 0.00 | 0.00 | 58 | 1012.9 |
| 20260510061319 | 17 | 277 | 3.2 | 3.2 | 0.00 | 0.00 | 0.00 | 57 | 1012.8 |
| 20260510060815 | 17 | 297 | 3.2 | 3.2 | 0.00 | 0.00 | 0.00 | 58 | 1012.8 |
| 20260510060313 | 17 | 289 | 1.6 | 3.2 | 0.00 | 0.00 | 0.00 | 59 | 1012.9 |
| 20260510055809 | 17 | 284 | 1.6 | 3.2 | 0.00 | 0.00 | 0.00 | 59 | 1012.8 |
| 20260510055308 | 17 | 222 | 0.0 | 1.6 | 0.00 | 0.00 | 0.00 | 59 | 1012.8 |
| 20260510054807 | 17 | 266 | 0.0 | 1.6 | 0.00 | 0.00 | 0.00 | 59 | 1012.8 |
| 20260510054303 | 17 | 288 | 0.0 | 3.2 | 0.00 | 0.00 | 0.00 | 58 | 1012.8 |
| 20260510053758 | 17 | 239 | 1.6 | 3.2 | 0.00 | 0.00 | 0.00 | 59 | 1012.7 |
| 20260510053254 | 17 | 290 | 0.0 | 0.0 | 0.00 | 0.00 | 0.00 | 61 | 1012.9 |
| 20260510052750 | 17 | 261 | 0.0 | 0.0 | 0.00 | 0.00 | 0.00 | 60 | 1012.8 |
| 20260510052246 | 17 | 266 | 0.0 | 0.0 | 0.00 | 0.00 | 0.00 | 59 | 1012.9 |
| 20260510051742 | 17 | 290 | 1.6 | 3.2 | 0.00 | 0.00 | 0.00 | 58 | 1012.8 |
| 20260510051239 | 17 | 295 | 3.2 | 3.2 | 0.00 | 0.00 | 0.00 | 57 | 1012.9 |
| 20260510050736 | 17 | 266 | 0.0 | 3.2 | 0.00 | 0.00 | 0.00 | 58 | 1012.9 |
| 20260510050233 | 17 | 298 | 1.6 | 3.2 | 0.00 | 0.00 | 0.00 | 59 | 1012.8 |
| 20260510045729 | 17 | 261 | 0.0 | 1.6 | 0.00 | 0.18 | 0.18 | 61 | 1012.6 |
| 20260510045226 | 17 | 283 | 0.0 | 1.6 | 0.00 | 0.18 | 0.18 | 60 | 1012.7 |
| 20260510044722 | 17 | 292 | 0.0 | 3.2 | 0.00 | 0.18 | 0.18 | 60 | 1012.6 |
| 20260510044221 | 17 | 292 | 1.6 | 1.6 | 0.00 | 0.18 | 0.18 | 60 | 1012.7 |
| 20260510043715 | 17 | 315 | 3.2 | 3.2 | 0.00 | 0.18 | 0.18 | 59 | 1012.9 |
| 20260510043213 | 17 | 297 | 1.6 | 3.2 | 0.00 | 0.18 | 0.18 | 58 | 1012.6 |
| 20260510042710 | 17 | 290 | 3.2 | 3.2 | 0.00 | 0.18 | 0.18 | 58 | 1012.6 |
| 20260510042206 | 17 | 280 | 1.6 | 3.2 | 0.00 | 0.18 | 0.18 | 58 | 1012.7 |
| 20260510041703 | 17 | 297 | 1.6 | 1.6 | 0.00 | 0.18 | 0.18 | 59 | 1012.7 |
| 20260510041200 | 17 | 275 | 1.6 | 3.2 | 0.00 | 0.18 | 0.18 | 58 | 1012.7 |
| 20260510040657 | 17 | 295 | 1.6 | 3.2 | 0.00 | 0.18 | 0.18 | 58 | 1012.6 |
| 20260510040154 | 17 | 279 | 1.6 | 3.2 | 0.00 | 0.18 | 0.18 | 57 | 1012.5 |
| 20260510035649 | 17 | 296 | 1.6 | 3.2 | 0.00 | 0.18 | 0.18 | 58 | 1012.7 |
| 20260510035145 | 17 | 297 | 1.6 | 3.2 | 0.00 | 0.18 | 0.18 | 58 | 1012.6 |
| 20260510034642 | 17 | 300 | 0.0 | 3.2 | 0.00 | 0.18 | 0.18 | 57 | 1012.5 |
| 20260510034139 | 18 | 300 | 0.0 | 3.2 | 0.00 | 0.18 | 0.18 | 56 | 1012.6 |
| 20260510033635 | 18 | 284 | 0.0 | 3.2 | 0.00 | 0.18 | 0.18 | 57 | 1012.6 |
| 20260510033133 | 18 | 292 | 0.0 | 3.2 | 0.00 | 0.18 | 0.18 | 56 | 1012.6 |
| 20260510032629 | 18 | 265 | 1.6 | 3.2 | 0.00 | 0.18 | 0.18 | 56 | 1012.5 |
| 20260510032124 | 18 | 285 | 3.2 | 3.2 | 0.00 | 0.18 | 0.18 | 56 | 1012.6 |
| 20260510031619 | 18 | 264 | 0.0 | 1.6 | 0.00 | 0.18 | 0.18 | 56 | 1012.4 |
| 20260510031117 | 18 | 282 | 0.0 | 1.6 | 0.00 | 0.18 | 0.18 | 55 | 1012.5 |
| 20260510030611 | 18 | 300 | 0.0 | 1.6 | 0.00 | 0.18 | 0.18 | 55 | 1012.5 |
| 20260510030109 | 18 | 300 | 0.0 | 3.2 | 0.00 | 0.18 | 0.18 | 56 | 1012.3 |
| 20260510025606 | 18 | 297 | 1.6 | 3.2 | 0.00 | 0.18 | 0.18 | 55 | 1012.3 |
| 20260510025103 | 18 | 281 | 0.0 | 3.2 | 0.00 | 0.18 | 0.18 | 55 | 1012.3 |
| 20260510024600 | 18 | 300 | 1.6 | 3.2 | 0.00 | 0.18 | 0.18 | 54 | 1012.4 |
| 20260510024056 | 18 | 283 | 1.6 | 3.2 | 0.00 | 0.18 | 0.18 | 54 | 1012.2 |
| 20260510023552 | 18 | 271 | 0.0 | 1.6 | 0.00 | 0.18 | 0.18 | 54 | 1012.3 |
| 20260510023050 | 18 | 276 | 0.0 | 1.6 | 0.00 | 0.18 | 0.18 | 55 | 1012.0 |
| 20260510022550 | 18 | 290 | 0.0 | 3.2 | 0.00 | 0.18 | 0.18 | 56 | 1012.0 |
| 20260510022049 | 18 | 274 | 0.0 | 1.6 | 0.00 | 0.18 | 0.18 | 55 | 1012.3 |
| 20260510021546 | 18 | 294 | 0.0 | 3.2 | 0.00 | 0.18 | 0.18 | 56 | 1012.1 |
| 20260510021044 | 18 | 277 | 0.0 | 0.0 | 0.00 | 0.18 | 0.18 | 59 | 1011.9 |
| 20260510020538 | 18 | 266 | 0.0 | 0.0 | 0.00 | 0.18 | 0.18 | 59 | 1012.1 |
| 20260510020034 | 18 | 261 | 0.0 | 0.0 | 0.00 | 0.18 | 0.18 | 58 | 1012.0 |
| 20260510015530 | 18 | 261 | 0.0 | 1.6 | 0.00 | 0.18 | 0.18 | 58 | 1011.8 |
| 20260510015026 | 18 | 260 | 0.0 | 1.6 | 0.00 | 0.18 | 0.18 | 57 | 1011.8 |
| 20260510014522 | 18 | 287 | 0.0 | 0.0 | 0.00 | 0.18 | 0.18 | 56 | 1011.8 |
| 20260510014020 | 18 | 278 | 0.0 | 0.0 | 0.00 | 0.18 | 0.18 | 55 | 1011.7 |
| 20260510013514 | 18 | 300 | 0.0 | 0.0 | 0.00 | 0.18 | 0.18 | 54 | 1011.7 |
| 20260510013010 | 18 | 300 | 0.0 | 0.0 | 0.00 | 0.18 | 0.18 | 56 | 1011.7 |
| 20260510012505 | 19 | 217 | 0.0 | 0.0 | 0.00 | 0.18 | 0.18 | 55 | 1011.4 |
| 20260510012000 | 20 | 266 | 0.0 | 1.6 | 0.00 | 0.18 | 0.18 | 53 | 1011.5 |
| 20260510011455 | 20 | 269 | 0.0 | 1.6 | 0.00 | 0.18 | 0.18 | 54 | 1011.3 |
| 20260510010951 | 20 | 317 | 0.0 | 1.6 | 0.00 | 0.18 | 0.18 | 52 | 1011.4 |
| 20260510010449 | 20 | 300 | 0.0 | 1.6 | 0.00 | 0.18 | 0.18 | 53 | 1011.1 |
| 20260510005945 | 20 | 275 | 0.0 | 1.6 | 0.00 | 0.18 | 0.18 | 51 | 1011.4 |
| 20260510005441 | 20 | 261 | 0.0 | 0.0 | 0.00 | 0.18 | 0.18 | 49 | 1011.2 |
| 20260510004939 | 21 | 261 | 0.0 | 1.6 | 0.00 | 0.18 | 0.18 | 47 | 1011.1 |
| 20260510004436 | 21 | 300 | 0.0 | 0.0 | 0.00 | 0.18 | 0.18 | 46 | 1011.1 |
| 20260510003934 | 21 | 340 | 0.0 | 0.0 | 0.00 | 0.18 | 0.18 | 45 | 1010.8 |
| 20260510003431 | 22 | 340 | 0.0 | 0.0 | 0.00 | 0.18 | 0.18 | 43 | 1010.6 |
| 20260510002930 | 22 | 306 | 0.0 | 0.0 | 0.00 | 0.18 | 0.18 | 43 | 1010.7 |
| 20260510002427 | 23 | 328 | 0.0 | 0.0 | 0.00 | 0.18 | 0.18 | 41 | 1010.6 |
| 20260510001923 | 23 | 294 | 0.0 | 1.6 | 0.00 | 0.18 | 0.18 | 39 | 1010.6 |
| 20260510001421 | 24 | 255 | 0.0 | 0.0 | 0.00 | 0.18 | 0.18 | 37 | 1010.7 |
| 20260510000918 | 25 | 268 | 0.0 | 1.6 | 0.00 | 0.18 | 0.18 | 36 | 1010.5 |
| 20260510000415 | 25 | 248 | 0.0 | 3.2 | 0.00 | 0.18 | 0.18 | 36 | 1010.5 |
| 20260509235911 | 25 | 277 | 0.0 | 3.2 | 0.00 | 0.18 | 0.18 | 34 | 1010.5 |
| 20260509235408 | 25 | 243 | 0.0 | 6.4 | 0.00 | 0.18 | 0.18 | 32 | 1010.5 |
| 20260509234904 | 26 | 239 | 1.6 | 3.2 | 0.00 | 0.18 | 0.18 | 31 | 1010.5 |
| 20260509234401 | 26 | 303 | 3.2 | 4.8 | 0.00 | 0.18 | 0.18 | 31 | 1010.5 |
| 20260509233859 | 27 | 277 | 3.2 | 4.8 | 0.00 | 0.18 | 0.18 | 29 | 1010.6 |
| 20260509233357 | 29 | 280 | 4.8 | 4.8 | 0.00 | 0.18 | 0.18 | 25 | 1010.6 |
| 20260509232852 | 29 | 264 | 1.6 | 3.2 | 0.00 | 0.18 | 0.18 | 27 | 1010.6 |
| 20260509232350 | 28 | 305 | 3.2 | 4.8 | 0.00 | 0.18 | 0.18 | 26 | 1010.3 |
| 20260509231846 | 28 | 303 | 3.2 | 4.8 | 0.00 | 0.18 | 0.18 | 26 | 1010.5 |
| 20260509231343 | 28 | 307 | 3.2 | 6.4 | 0.00 | 0.18 | 0.18 | 25 | 1010.4 |
| 20260509230841 | 30 | 306 | 4.8 | 4.8 | 0.00 | 0.18 | 0.18 | 24 | 1010.4 |
| 20260509230337 | 28 | 310 | 1.6 | 4.8 | 0.00 | 0.18 | 0.18 | 27 | 1010.7 |
| 20260509225833 | 28 | 302 | 1.6 | 3.2 | 0.00 | 0.18 | 0.18 | 28 | 1010.5 |